Regional Weather Roundup
Issued by NWS

Home | Current Version | Previous Version | Graphics & Text | Print | Product List | Glossary Off
Versions: 1 2 3 4 5 6 7 8 9 10 11 12 13 14 15 16 17 18 19 20 21 22 23 24 25 26 27 28 29 30 31 32 33 34 35 36 37 38 39 40 41 42 43 44 45 46 47 48 49 50

000
ASUS43 KMKX 312200
RWRWI

WISCONSIN REGIONAL WEATHER ROUNDUP
NATIONAL WEATHER SERVICE MILWAUKEE/SULLIVAN WI
500 PM CDT TUE MAY 31 2016

NOTE: "FAIR" INDICATES FEW OR NO CLOUDS BELOW 12,000 FEET WITH NO
SIGNIFICANT WEATHER AND/OR OBSTRUCTIONS TO VISIBILITY.

WIZ001-002-006>008-014>016-023>028-312300-
NORTHWEST WISCONSIN

CITY           SKY/WX    TMP DP  RH WIND       PRES   REMARKS
SUPERIOR ARPT  CLOUDY    44  42  94 NE15G23   29.91S
ASHLAND        LGT RAIN  49  48  97 NE9       29.90R
HAYWARD        CLOUDY    69  63  81 SE6       29.86R
SIREN          CLOUDY    72  59  64 SW8       29.84S
CUMBERLAND     LGT RAIN  68  63  83 SW8       29.85S
RICE LAKE      RAIN      66  62  86 S9        29.87F
CHETEK         LGT RAIN  64  62  94 SW7       29.86F
LADYSMITH      LGT RAIN  64  58  83 SW17G24   29.89R
EAU CLAIRE     TSTM      63  61  94 CALM      29.87R VSB 1
MENOMONIE      RAIN      63  63  99 CALM      29.88R
NEW RICHMOND   LGT RAIN  67  61  81 SW8       29.86S
OSCEOLA        CLOUDY    70  62  77 S8        29.87S
$$

WIZ003>005-009-010-017-018-312300-
NORTH CENTRAL WISCONSIN

CITY           SKY/WX    TMP DP  RH WIND       PRES   REMARKS
MANITOWISH WTR CLOUDY    70  56  60 SE15G23   29.90S
ARBOR VITAE    MOSUNNY   72  56  57 S17G29    29.91S
WOODRUFF       MOSUNNY   72  56  57 S17G29    29.91S
RHINELANDER    CLOUDY    70  54  56 SE12G26   29.94F
EAGLE RIVER      N/A     71  48  45 S13G24    29.93F
LAND O LAKES   CLOUDY    72  49  43 S15       29.94F
PHILLIPS       CLOUDY    69  58  67 SE17G23   29.89R
TOMAHAWK       PTSUNNY   71  57  62 SE10G21   29.92F
MEDFORD        CLOUDY    69  58  68 SE18G30   29.90R
MERRILL        CLOUDY    68  61  77 SE16      29.93F
$$

WIZ029-030-035-036-043>047-312300-
CENTRAL WISCONSIN

CITY           SKY/WX    TMP DP  RH WIND       PRES   REMARKS
WAUSAU         CLOUDY    70  57  63 SE14G22   29.92F
MOSINEE        MOSUNNY   66  61  82 SE15      29.94F
MARSHFIELD     CLOUDY    70  58  65 SE13G21   29.90S
STEVENS POINT  CLOUDY    68  57  68 SE9       29.95F
WAUPACA        CLOUDY    71  60  67 SE15      29.95F
WAUTOMA        PTSUNNY  N/A N/A N/A SE10      29.95F
WISC RAPIDS    CLOUDY    73  58  59 SE16G22   29.92F
CAMP DOUGLAS   NOT AVBL
$$

WIZ011>013-019>022-031-037>040-048>050-312300-
NORTHEAST WISCONSIN

CITY           SKY/WX    TMP DP  RH WIND       PRES   REMARKS
ANTIGO         CLOUDY    65  55  69 SE16      29.98F
SHAWANO        CLOUDY    71  56  59 SE10G21   29.97F
OCONTO         CLOUDY    65  52  63 E5        30.01F
STURGEON BAY   SUNNY     66  52  59 E6        30.02F
GREEN BAY      CLOUDY    68  59  73 E6        29.99F
MANITOWOC      NOT AVBL
APPLETON       PTSUNNY   66  55  68 SE14      29.97F
CLINTONVILLE   CLOUDY    70  52  52 SE13G23   29.96F
OSHKOSH        CLOUDY    67  59  75 SE9       29.96F
$$

WIZ032>034-041-042-053>061-312300-
SOUTHWEST WISCONSIN

CITY           SKY/WX    TMP DP  RH WIND       PRES   REMARKS
LA CROSSE      LGT RAIN  70  64  81 S8        29.86R
SPARTA         CLOUDY    73  60  63 SE13G22   29.88F
VIROQUA        CLOUDY    71  61  71 S10       29.90S
BOSCOBEL       NOT AVBL
PRAIRIE DU CHI PTSUNNY   73  62  70 SE10      29.87F
PLATTEVILLE    PTSUNNY   70  65  82 SE12      29.93S
$$

WIZ056-057-062-063-064-067-068-312300-
SOUTH CENTRAL WISCONSIN

CITY           SKY/WX    TMP DP  RH WIND       PRES   REMARKS
REEDSBURG      CLOUDY    71  64  76 SE6       29.92F
BARABOO/DELLS  CLOUDY    72  60  67 SE13      29.93F
LONE ROCK      NOT AVBL
MINERAL POINT  PTSUNNY   70  63  78 SE9       29.93F
MADISON        CLOUDY    71  61  70 SE18      29.94F
MIDDLETON      CLOUDY    73  62  70 SE9       29.95S
WATERTOWN      CLOUDY    65  65 100 SE10      29.98F
MONROE         MOSUNNY   70  61  73 SE15G23   29.95F
JANESVILLE     CLOUDY    70  64  83 SE13G18   29.97F
$$

WIZ051-052-058>065-066-070>072-312300-
SOUTHEAST WISCONSIN

CITY           SKY/WX    TMP DP  RH WIND       PRES   REMARKS
MILWAUKEE      LGT RAIN  69  60  73 W8        30.02R
WAUKESHA       RAIN      63  61  94 SW3       30.04R
MILWAUKEE/TIMM LGT RAIN  66  61  82 SW8       30.03R
RACINE         MOSUNNY   72  60  66 W8        30.03R
BURLINGTON     RAIN      63  60  91 CALM      30.04S
KENOSHA        CLOUDY    68  59  73 W10       30.03F
FOND DU LAC    CLOUDY    67  62  84 SE10      29.97F
SHEBOYGAN      CLOUDY    66  55  67 NE5       30.00F
WEST BEND      RAIN      64  59  82 CALM      30.01S
JUNEAU         CLOUDY    66  62  87 SE14      29.98F
$$

LSZ147-162-312300-
LAKE SUPERIOR

STATION/POSITION TIME  TEMP    WIND        PRES    WAVE
                       AIR SEA DIR/SP/G            HT/PER
                 (UTC) (F)     (DEG/KT/KT) (MB)    (FT/S)
W MID LAKE BUOY  2050   41 38   40/ 16/ 19 1014.8F   3/ 4
DEVILS ISLAND    2100   44      80/ 23/ 26 1013.0F
SAXON HARBOR     2100          320/ 11/ 13 1011.5S
$$

LMZ867-665-643>646-312300-
LAKE MICHIGAN

STATION/POSITION TIME  TEMP    WIND        PRES    WAVE
                       AIR SEA DIR/SP/G            HT/PER
                 (UTC) (F)     (DEG/KT/KT) (MB)    (FT/S)
CHAMBERS ISLAND  2100   57      20/ 10/ 12 1016.9F
N MID LAKE BUOY  2050   51 48   30/  8/  8 1017.2F   1/ 4
NORTHPORT PIER   2100   59      80/  5/  7 1017.3F
SISTER BAY       2120   67     150/  9/ 13   N/A
ALGOMA LAKESHORE 2102           60/  9/ 12   N/A
KEWAUNEE LAKESHO 2100   55      20/  5/ 10 1016.7F
SHEBOYGAN LAKESH 2100   49      10/  9/  9 1017.0F
PORT WASHINGTON  2100   55      40/  6/  7 1016.9
S MID LAKE BUOY  2050   61 56   80/  6/  6 1014.5F   0
KENOSHA   LAKESH 2100   67     350/  4/  6 1015.9R
$$

TC  - TEMPERATURE IN CELSIUS
VSB - VISIBILITY IN STATUTE MILES
WCI - WIND CHILL INDEX
HX  - HEAT INDEX





USA.gov is the U.S. government's official web portal to all federal, state and local government web resources and services.